Location: Newark
(52.0742°N, 23.6111°E)
Time: 17:19:37
(UTC+00:00)

Envisat - Visible Passes

Search period start: 01 October 2020 00:00
Search period end: 11 October 2020 00:00
Orbit: 764 x 766 km, 98.1° (Epoch: 01 October)

Date Brightness Start Highest point End Pass type
(mag) Time Alt. Az. Time Alt. Az. Time Alt. Az.
01 Oct 6.3 03:07:21 10° NE 03:10:09 15° E 03:12:56 10° ESE visible
02 Oct 6.4 17:10:28 10° WSW 17:13:07 14° W 17:15:47 10° NW visible
03 Oct 5.8 03:31:53 10° NE 03:35:56 23° E 03:39:57 10° SE visible
03 Oct 5.5 16:31:33 10° SSW 16:35:51 27° W 16:40:11 10° NW visible
04 Oct 6.5 02:56:47 10° ENE 02:58:36 12° E 03:00:26 10° ESE visible
05 Oct 4.9 03:56:54 10° NNE 04:01:36 36° E 04:06:17 10° SSE visible
05 Oct 6.2 16:58:17 10° SW 17:01:36 17° W 17:04:56 10° NW visible
06 Oct 6.1 03:20:49 10° NE 03:24:26 19° E 03:28:02 10° SE visible
06 Oct 5.1 16:19:50 10° SSW 16:24:24 33° W 16:28:59 10° NNW visible
07 Oct 6.8 17:26:35 10° W 17:27:26 10° W 17:28:18 10° WNW visible
08 Oct 5.3 03:45:40 10° NNE 03:50:09 30° E 03:54:36 10° SSE visible
08 Oct 5.9 16:46:17 10° SW 16:50:05 21° W 16:53:55 10° NW visible
09 Oct 6.2 03:09:52 10° NE 03:12:55 16° E 03:15:57 10° ESE visible
09 Oct 4.7 16:08:11 10° SSW 16:12:56 40° W 16:17:44 10° NNW visible
10 Oct 6.4 17:13:33 10° WSW 17:15:53 13° W 17:18:14 10° WNW visible
